SpaceMobile-004

operational
NORAD ID: 61049 Int'l Des: 2024-163 Owner: ASTS Country: US Constellation: bluewalker
LEOCIRCULAR

About SpaceMobile-004

Description loading...

Live Position

Loading 3D Globe...

Upcoming Passes

Altitude History

Altitude vs Time

uPlot chart will show altitude changes over time

Two-Line Element Set

1 61049U 24163E 25298.71825985 .00005088 00000-0 24139-3 0 9990
2 61049 52.9804 307.4887 0010667 146.1401 214.0276 15.20910827 62087
Epoch: Oct 25, 2025 • Age: 10 hours

Current Status

Altitude 504.2 km
Velocity 7.62 km/s
Sub-Earth Point 51.68°N, 27.96°W
Launch Date Sep 12, 2024
Age 1.1 years
Type other

Technical Details

Classification Payload
Mass 1500.00 kg
Dry Mass 1500.00 kg
Total Mass 1500.00 kg
Length 1.00 m
Diameter 1.00 m
Span 9.00 m
Shape Box + plate
Manufacturer ASTS
Bus Type BW3
Phase Status In Orbit
Owner/State ASTS/US

Large Constellations

Loading constellations...